Regional Weather Roundup
Issued by NWS

Home | Current Version | Previous Version | Graphics & Text | Print | Product List | Glossary On
Versions: 1 2 3 4 5 6 7 8 9 10 11 12 13 14 15 16 17 18 19 20 21 22 23 24 25 26 27 28 29 30 31 32 33 34 35 36 37 38 39 40 41 42 43 44 45 46 47 48 49 50
000
ASUS45 KTFX 111510
RWRMT
MONTANA REGIONAL WEATHER ROUNDUP
NATIONAL WEATHER SERVICE GREAT FALLS MT
800 AM MST THU FEB 11 2016

NOTE: "FAIR" INDICATES FEW OR NO CLOUDS BELOW 12000 FEET WITH NO
SIGNIFICANT WEATHER AND/OR OBSTRUCTIONS TO VISIBILITY.

MTZ001>007-043-111600-
WEST OF THE DIVIDE

CITY           SKY/WX    TMP DP  RH WIND       PRES   REMARKS
KALISPELL      MOCLDY    31  29  92 CALM      30.27R
MISSOULA       PTCLDY    32  29  88 CALM      30.30R
BUTTE          CLOUDY    25  19  78 N5        30.26R
MULLAN PASS    PTCLDY    31  30  96 S5        30.26R
ANACONDA         N/A     43  27  52 SW10      30.26R
DEER LODGE       N/A     30  27  86 SW3       30.26S
HAMILTON         N/A     39  30  70 S6        30.28R
$$

MTZ008-052>055-111600-
SOUTHWEST MONTANA

CITY           SKY/WX    TMP DP  RH WIND       PRES   REMARKS
BOZEMAN        CLOUDY    29  23  78 SW6       30.24R WCI  23
DILLON         CLOUDY    34  24  67 SW20      30.25R WCI  23
ENNIS          PTCLDY    34  25  69 S15       30.32R WCI  24
THREE FORKS      N/A     28  28 100 CALM      30.20R
TWIN BRIDGES     N/A     31  19  61 E3        30.22R
$$

MTZ009-010-012-014-046-048-049-054-111600-
EAST SLOPES AND CENTRAL MONTANA

CITY           SKY/WX    TMP DP  RH WIND       PRES   REMARKS
CUT BANK       PTCLDY    37  26  64 SW9       30.10R WCI  30
GREAT FALLS    CLOUDY    36  24  62 SW12      30.13R WCI  28
MALMSTROM AFB  CLOUDY    34  26  71 SW10      30.14R WCI  26
HELENA         CLOUDY    45  30  55 SW10      30.20S
CHOTEAU          N/A     46  23  39 W17G23    30.13S
CONRAD           N/A     34  26  72 SW5       30.11R
$$

MTZ011-013-016-021-045-047-050-051-111600-
NORTH CENTRAL MONTANA

CITY           SKY/WX    TMP DP  RH WIND       PRES   REMARKS
HAVRE          CLOUDY    35  31  85 SW13      30.07R WCI  26
LEWISTOWN      CLOUDY    42  28  57 W12       30.11R
N BAR RANCH      N/A     45  25  45 NW25      30.09R
CHINOOK          N/A     36  30  80 W8        30.07R WCI  29
$$

MTZ017>020-022>027-061-062-111600-
NORTHEAST MONTANA

CITY           SKY/WX    TMP DP  RH WIND       PRES   REMARKS
GLASGOW        LGT SNOW  28  24  85 E10       30.04R FOG     WCI  19
JORDAN           N/A     34  31  88 W6        30.00R WCI  29
SIDNEY         CLOUDY    27  23  86 N10       30.05R VSB 1   WCI  17
WOLF POINT     SNOW      28  24  85 NE9       30.07R VSB 1/4 WCI  19
PLENTYWOOD       N/A     19  16  86 NE9       30.08R VSB 1   WCI   9
POPLAR           N/A     25  21  86 NE10      30.07R VSB 1   WCI  15
SCOBEY           N/A     22  15  74 N6        30.04  VSB 1   WCI  15
$$

MTZ028>42-056>058-111600-
SOUTHCENTRAL AND SOUTHEAST MONTANA

CITY           SKY/WX    TMP DP  RH WIND       PRES   REMARKS
BAKER          CLOUDY    31  27  85 VRB5      29.95R
BILLINGS       CLOUDY    47  25  42 NW12      30.12R
LIVINGSTON     CLOUDY    45  22  40 W26G41    30.15R
MILES CITY     CLOUDY    31  28  89 SW3       30.01R
FORSYTH          N/A     36  30  80 W8        30.04R WCI  29
LAUREL           N/A     41  20  43 CALM      30.09R
ROUNDUP          N/A     43  25  49 W3        29.99R
$$

REGIONAL REPORTS...DAKOTAS

CITY           SKY/WX    TMP DP  RH WIND       PRES   REMARKS
WILLISTON      LGT SNOW  22  18  85 NE7       30.08S FOG     WCI  13
MINOT          CLOUDY    15   7  70 NE5       30.14R
DICKINSON      LGT SNOW  22  19  89 E7        29.99S VSB 3/4 WCI  13
BEACH          LGT SNOW  28  28 100 E7        30.01S WCI  21
CROSBY         LGT SNOW  16  16 100 E12       30.14S WCI   3
TIOGA          LGT SNOW  18  18 100 E8        30.12S WCI   7
WATFORD CITY   LGT SNOW  21  19  93 E6        30.06S WCI  14
BISMARCK       LGT SNOW  20  15  81 E6        30.12S VSB 1   WCI  12
GRAND FORKS    CLOUDY     7   0  73 S6        30.26S WCI  -3
FARGO          CLOUDY     8  -1  66 SE3       30.26F
BUFFALO SD       N/A     31  28  89 S12       29.89F WCI  22
RAPID CITY     FOG       28  27  96 CALM      30.00R VSB<1/4
$$

REGIONAL REPORTS...WYOMING/IDAHO/WASHINGTON

CITY           SKY/WX    TMP DP  RH WIND       PRES   REMARKS
GILLETTE       CLOUDY    44  24  45 W13       30.06R
SHERIDAN       PTCLDY    50  21  32 NW15      30.08S
BUFFALO WY     CLOUDY    45  24  43 N20G25    30.09R
CODY           CLOUDY    46  21  36 NE13      30.14R
YELLOWSTONE LA   N/A     18  14  84 CALM      30.35R
IDAHO FALLS    CLOUDY    11   8  88 N5        30.41S
SALMON         CLOUDY    10   5  79 CALM      30.42R
BOISE          CLEAR     32  27  81 SE7       30.40F WCI  26
SPOKANE        FOG       32  31  96 CALM      30.30R VSB 1/16
$$

REGIONAL REPORTS...ALBERTA

CITY           SKY/WX    TMP DP  RH WIND       PRES   REMARKS
EDMONTON       LGT SNOW  19  14  79 NE5       30.15R
CALGARY        MOCLDY    30  28  93 N7        30.12R WCI  23
LETHBRIDGE     FOG       27  27 100 W2        30.11R VSB 1/4
MEDICINE HAT   FRZ RAIN  27  27 100 N5        30.14R
WATERTON GATE    N/A     43  16  33 SW16G32     N/A
MILK RIVER       N/A     37  25  60 NW12        N/A  WCI  30
ONEFOUR          N/A     28  28 100 NW21        N/A  WCI  15
$$

REGIONAL REPORTS...SASKATCHEWAN

CITY           SKY/WX    TMP DP  RH WIND       PRES   REMARKS
SWIFT CURRENT  LGT SNOW  16  16 100 E14       30.07R WCI   1
REGINA         FLURRIES  16  10  79 E2        30.16R
SASKATOON      FLURRIES   7   3  85 E9        30.26R WCI  -7
VAL MARIE        N/A     27  27 100 E6          N/A  WCI  20
ROCKGLEN         N/A     19  18  93 NE5         N/A
ASSINIBOIA       N/A     16  14  93 E5          N/A
$$



USA.gov is the U.S. government's official web portal to all federal, state and local government web resources and services.